一网星座-0366星 (ONEWEB-0366 )

导读

ONEWEB-0366是英国OneWeb星座下的低轨通信卫星,于2021年10月14日发射升空。属于OneWeb一期组网卫星,运行在约1200公里高度的近极地轨道,配备Ku/Ka波段通信载荷,单星具备约7.5Gbps通信能力,为全球提供低延迟宽带互联网接入服务。卫星设计寿命5年,寿命末期会主动离轨,符合空间碎片减缓规范,是OneWeb全球星座组网的重要组成部分。

基本信息
目录编号:
49292
目录名称:
ONEWEB-0366
国际标识:
2021-090P
轨道中心:
EARTH
卫星名称:
一网星座-0366星
卫星全名:
一网星座-0366星 (ONEWEB-0366 )
卫星状态:
在轨 (已飞行1797 天)
发射日期:
2021-10-14 UTC
国别 :
英国 (GB)
星等 :
--
该卫星已列入 空间交会检测服务 Space Conjunction Data Service (SCDS) ,当前飞行风险评估等级: 无高风险
轨道信息
数据来源 国际轨道数据 AOE轨道数据
星历时间 2026-09-15T19:37:00+0800
11小时前
查看轨道信息
2026-09-15T23:00:00+0800
8小时前
查看轨道信息
半长轴 7583.924km 7583.906km
偏心率 0.0001879 0.0003525
轨道倾角 87.890° 87.891°
近地点辐角 93.255° 68.069°
升交点赤经 271.699° 271.673°
平近点角 266.880° 238.782°
近地点 1204.361km 1203.095km
远地点 1207.213km 1208.443km
周期 109.547分钟 109.547分钟
每日圈数 13.145037 13.145085
详细信息
平衡模式:
三轴稳定
覆盖范围:
全球
运营商:
一网卫星公司
运营商所在国:
英国
制造商(研发单位):
一网卫星公司
制造商所在国:
英国
使用方式:
暂无
卫星简介
OneWeb卫星网络由648颗重约125公斤的微型卫星组成,运行在1200公里的轨道上。 每颗卫星都能够提供至少每秒8千兆位的吞吐量,以使用其高吞吐量的Ku频段有效载荷为家庭和移动平台提供互联网接入。该卫星仍在工作。
2D轨道图
3D轨道图
轨道高度分析图
轨道倾角分析图
轨道综合分析图
查看轨道综合分析图
与全量物体交会距离演化趋势 订阅飞行安全评估服务
与全量物体交会风险概率演化趋势 订阅飞行安全评估服务